sat.trackr.live / text

‹ back to catalog

STARLINK-11356 [DTC]

NORAD 61574 · 2024-187A

PAYLOAD ACTIVE UNKNOWN

§ Identity

Operator
Country
US
Launch date
2024-10-18
Launch site
AFETR
Launch vehicle
Mass (kg)
RCS (m²)

Purposes: comms

External: N2YO · Heavens-Above · Gunter

§ Orbital elements

Epoch: 2026-09-21T21:04:27.396768Z

Period
91.74 min
Inclination
53.1589°
Eccentricity
0.0000512
Mean motion
15.69729623 rev/d
Perigee alt
359.3 km
Apogee alt
360.0 km
Semi-major
6,737.8 km
B*
3.5536e-5
RAAN
49.1381°
Arg perigee
80.1326°
Mean anomaly
279.9750°
Rev number
11,159

§ Raw data

STARLINK-11356 [DTC]1 61574U 24187A   26264.87809487  .00003723  00000+0  35536-4 0  99962 61574  53.1589  49.1381 0000512  80.1326 279.9750 15.69729623111596

JSON: /api/v1/satellites/61574 · /tle

For live sub-satellite position, see the globe view (requires WebGL).

§ Visibility from observer

Set your observer location to see the next 7 days of passes ≥ 10°. The values pass through the URL so the page stays shareable.

No JS? Fill the form by hand. The geolocation button needs JavaScript.